| time (UTC) | temp C | wind direction | speed KPH | gust KPH | rain 1hr cm | rain 24hr cm | rain mn cm | humidity % | barometer mb |
| 20260503214003 | 28 | 84 | 0.0 | 1.6 | 0.00 | 0.00 | 0.00 | 38 | 1018.8 |
| 20260503213512 | 28 | 118 | 0.0 | 1.6 | 0.00 | 0.00 | 0.00 | 37 | 1018.8 |
| 20260503213020 | 27 | 125 | 0.0 | 3.2 | 0.00 | 0.00 | 0.00 | 38 | 1019.0 |
| 20260503212502 | 28 | 238 | 0.0 | 3.2 | 0.00 | 0.00 | 0.00 | 36 | 1019.2 |
| 20260503212011 | 28 | 195 | 0.0 | 3.2 | 0.00 | 0.00 | 0.00 | 36 | 1019.4 |
| 20260503211515 | 27 | 212 | 0.0 | 4.8 | 0.00 | 0.00 | 0.00 | 36 | 1019.5 |
| 20260503211004 | 27 | 202 | 0.0 | 4.8 | 0.00 | 0.00 | 0.00 | 36 | 1019.5 |
| 20260503210507 | 27 | 229 | 0.0 | 4.8 | 0.00 | 0.00 | 0.00 | 39 | 1019.6 |
| 20260503210036 | 27 | 241 | 0.0 | 6.4 | 0.00 | 0.00 | 0.00 | 40 | 1019.6 |
| 20260503205511 | 27 | 217 | 0.0 | 6.4 | 0.00 | 0.00 | 0.00 | 41 | 1019.6 |
| 20260503205007 | 27 | 29 | 3.2 | 6.4 | 0.00 | 0.00 | 0.00 | 36 | 1019.6 |
| 20260503204511 | 27 | 250 | 0.0 | 4.8 | 0.00 | 0.00 | 0.00 | 42 | 1019.8 |
| 20260503204010 | 26 | 250 | 0.0 | 4.8 | 0.00 | 0.00 | 0.00 | 42 | 1019.9 |
| 20260503203503 | 26 | 221 | 1.6 | 4.8 | 0.00 | 0.00 | 0.00 | 40 | 1020.0 |
| 20260503203028 | 26 | 115 | 0.0 | 4.8 | 0.00 | 0.00 | 0.00 | 41 | 1020.1 |
| 20260503202510 | 27 | 41 | 1.6 | 4.8 | 0.00 | 0.00 | 0.00 | 38 | 1020.2 |
| 20260503202005 | 27 | 279 | 0.0 | 3.2 | 0.00 | 0.00 | 0.00 | 40 | 1020.3 |
| 20260503201533 | 27 | 280 | 0.0 | 4.8 | 0.00 | 0.00 | 0.00 | 42 | 1020.4 |
| 20260503201004 | 27 | 252 | 1.6 | 4.8 | 0.00 | 0.00 | 0.00 | 38 | 1020.4 |
| 20260503200503 | 28 | 131 | 0.0 | 3.2 | 0.00 | 0.00 | 0.00 | 36 | 1020.6 |
| 20260503200023 | 28 | 209 | 0.0 | 6.4 | 0.00 | 0.00 | 0.00 | 41 | 1020.6 |
| 20260503195504 | 28 | 191 | 1.6 | 6.4 | 0.00 | 0.00 | 0.00 | 39 | 1020.7 |
| 20260503195010 | 28 | 226 | 0.0 | 3.2 | 0.00 | 0.00 | 0.00 | 38 | 1020.8 |
| 20260503194521 | 28 | 171 | 0.0 | 3.2 | 0.00 | 0.00 | 0.00 | 38 | 1020.9 |
| 20260503194003 | 28 | 79 | 0.0 | 4.8 | 0.00 | 0.00 | 0.00 | 36 | 1020.8 |
| 20260503193507 | 28 | 248 | 0.0 | 4.8 | 0.00 | 0.00 | 0.00 | 42 | 1020.9 |
| 20260503193017 | 28 | 25 | 0.0 | 4.8 | 0.00 | 0.00 | 0.00 | 38 | 1021.1 |
| 20260503192504 | 27 | 148 | 0.0 | 3.2 | 0.00 | 0.00 | 0.00 | 41 | 1021.2 |
| 20260503192008 | 27 | 242 | 1.6 | 6.4 | 0.00 | 0.00 | 0.00 | 37 | 1021.3 |
| 20260503191517 | 27 | 255 | 0.0 | 6.4 | 0.00 | 0.00 | 0.00 | 47 | 1021.2 |
| 20260503191012 | 27 | 15 | 3.2 | 6.4 | 0.00 | 0.00 | 0.00 | 36 | 1021.3 |
| 20260503190506 | 28 | 123 | 0.0 | 4.8 | 0.00 | 0.00 | 0.00 | 39 | 1021.5 |
| 20260503190012 | 28 | 152 | 0.0 | 4.8 | 0.00 | 0.00 | 0.00 | 39 | 1021.6 |
| 20260503185507 | 27 | 293 | 0.0 | 4.8 | 0.00 | 0.00 | 0.00 | 40 | 1021.5 |
| 20260503185011 | 27 | 233 | 0.0 | 6.4 | 0.00 | 0.00 | 0.00 | 41 | 1021.5 |
| 20260503184529 | 27 | 195 | 0.0 | 9.7 | 0.00 | 0.00 | 0.00 | 41 | 1021.6 |
| 20260503184011 | 27 | 248 | 0.0 | 9.7 | 0.00 | 0.00 | 0.00 | 43 | 1021.7 |
| 20260503183504 | 26 | 263 | 3.2 | 6.4 | 0.00 | 0.00 | 0.00 | 46 | 1021.8 |
| 20260503183027 | 26 | 63 | 1.6 | 6.4 | 0.00 | 0.00 | 0.00 | 41 | 1021.8 |
| 20260503182507 | 26 | 88 | 1.6 | 3.2 | 0.00 | 0.00 | 0.00 | 41 | 1021.8 |
| 20260503182007 | 26 | 53 | 0.0 | 6.4 | 0.00 | 0.00 | 0.00 | 44 | 1021.9 |
| 20260503181524 | 25 | 72 | 0.0 | 6.4 | 0.00 | 0.00 | 0.00 | 40 | 1022.1 |
| 20260503181004 | 26 | 32 | 3.2 | 6.4 | 0.00 | 0.00 | 0.00 | 39 | 1022.2 |
| 20260503180509 | 26 | 47 | 1.6 | 4.8 | 0.00 | 0.00 | 0.00 | 40 | 1022.2 |
| 20260503180024 | 26 | 155 | 0.0 | 4.8 | 0.00 | 0.00 | 0.00 | 43 | 1022.4 |
| 20260503175507 | 26 | 222 | 1.6 | 4.8 | 0.00 | 0.00 | 0.00 | 44 | 1022.5 |
| 20260503175013 | 26 | 78 | 1.6 | 4.8 | 0.00 | 0.00 | 0.00 | 42 | 1022.5 |
| 20260503174523 | 26 | 81 | 1.6 | 4.8 | 0.00 | 0.00 | 0.00 | 43 | 1022.7 |
| 20260503174004 | 26 | 47 | 3.2 | 4.8 | 0.00 | 0.00 | 0.00 | 40 | 1022.7 |
| 20260503173508 | 27 | 99 | 0.0 | 4.8 | 0.00 | 0.00 | 0.00 | 40 | 1022.9 |
| 20260503173020 | 27 | 267 | 0.0 | 4.8 | 0.00 | 0.00 | 0.00 | 41 | 1023.0 |
| 20260503172509 | 27 | 205 | 0.0 | 3.2 | 0.00 | 0.00 | 0.00 | 43 | 1023.0 |
| 20260503172013 | 27 | 294 | 0.0 | 6.4 | 0.00 | 0.00 | 0.00 | 44 | 1023.0 |
| 20260503171518 | 26 | 190 | 0.0 | 6.4 | 0.00 | 0.00 | 0.00 | 48 | 1023.1 |
| 20260503171010 | 26 | 203 | 0.0 | 3.2 | 0.00 | 0.00 | 0.00 | 45 | 1023.2 |
| 20260503170508 | 25 | 213 | 0.0 | 3.2 | 0.00 | 0.00 | 0.00 | 47 | 1023.2 |
| 20260503151003 | 20 | 203 | 0.0 | 4.8 | 0.00 | 0.00 | 0.00 | 66 | 1023.1 |
| 20260503150503 | 20 | 91 | 0.0 | 4.8 | 0.00 | 0.00 | 0.00 | 66 | 1023.0 |
| 20260503131003 | 12 | 324 | 0.0 | 0.0 | 0.00 | 0.03 | 0.00 | 97 | 1022.5 |
| 20260503130507 | 12 | 324 | 0.0 | 0.0 | 0.00 | 0.03 | 0.00 | 97 | 1022.4 |
| 20260503110510 | 10 | 325 | 0.0 | 0.0 | 0.00 | 0.03 | 0.00 | 95 | 1021.6 |
| 20260503090507 | 11 | 324 | 0.0 | 0.0 | 0.00 | 0.03 | 0.00 | 95 | 1021.0 |
| 20260503081543 | 12 | 324 | 0.0 | 0.0 | 0.00 | 0.03 | 0.00 | 95 | 1021.2 |
| 20260503081010 | 11 | 325 | 0.0 | 0.0 | 0.00 | 0.03 | 0.00 | 94 | 1021.3 |
| 20260503080507 | 11 | 325 | 0.0 | 0.0 | 0.00 | 0.03 | 0.00 | 95 | 1021.2 |
| 20260503072507 | 12 | 325 | 0.0 | 0.0 | 0.00 | 0.03 | 0.00 | 94 | 1021.3 |
| 20260503072011 | 12 | 325 | 0.0 | 0.0 | 0.00 | 0.03 | 0.00 | 94 | 1021.3 |
| 20260503071534 | 12 | 325 | 0.0 | 0.0 | 0.00 | 0.03 | 0.00 | 94 | 1021.3 |
| 20260503071009 | 12 | 325 | 0.0 | 0.0 | 0.00 | 0.03 | 0.00 | 94 | 1021.3 |
| 20260503070507 | 12 | 325 | 0.0 | 0.0 | 0.00 | 0.03 | 0.00 | 94 | 1021.4 |
| 20260503055003 | 12 | 325 | 0.0 | 0.0 | 0.00 | 0.03 | 0.00 | 93 | 1021.4 |
| 20260503054505 | 12 | 325 | 0.0 | 0.0 | 0.00 | 0.03 | 0.00 | 93 | 1021.5 |
| 20260503054004 | 12 | 325 | 0.0 | 0.0 | 0.00 | 0.03 | 0.00 | 93 | 1021.5 |
| 20260503053503 | 12 | 325 | 0.0 | 0.0 | 0.00 | 0.03 | 0.00 | 93 | 1021.5 |
| 20260503053027 | 12 | 325 | 0.0 | 0.0 | 0.00 | 0.03 | 0.00 | 93 | 1021.5 |
| 20260503052509 | 12 | 325 | 0.0 | 0.0 | 0.00 | 0.03 | 0.00 | 93 | 1021.3 |
| 20260503052006 | 13 | 325 | 0.0 | 0.0 | 0.00 | 0.03 | 0.00 | 93 | 1021.1 |
| 20260503051522 | 13 | 325 | 0.0 | 0.0 | 0.00 | 0.03 | 0.00 | 93 | 1021.1 |
| 20260503051005 | 13 | 325 | 0.0 | 0.0 | 0.00 | 0.03 | 0.00 | 93 | 1021.2 |
| 20260503050503 | 13 | 325 | 0.0 | 0.0 | 0.00 | 0.03 | 0.00 | 93 | 1021.2 |
| 20260503050020 | 13 | 325 | 0.0 | 0.0 | 0.00 | 0.03 | 0.00 | 92 | 1021.4 |
| 20260503045505 | 13 | 325 | 0.0 | 0.0 | 0.00 | 0.03 | 0.03 | 92 | 1021.3 |
| 20260503045012 | 13 | 325 | 0.0 | 0.0 | 0.00 | 0.03 | 0.03 | 92 | 1021.2 |
| 20260503044534 | 13 | 325 | 0.0 | 0.0 | 0.00 | 0.03 | 0.03 | 92 | 1021.1 |
| 20260503044004 | 13 | 325 | 0.0 | 0.0 | 0.00 | 0.03 | 0.03 | 91 | 1021.1 |
| 20260503043507 | 13 | 325 | 0.0 | 0.0 | 0.00 | 0.03 | 0.03 | 91 | 1021.1 |
| 20260503043016 | 13 | 325 | 0.0 | 0.0 | 0.00 | 0.03 | 0.03 | 91 | 1021.1 |
| 20260503042503 | 13 | 325 | 0.0 | 0.0 | 0.00 | 0.03 | 0.03 | 91 | 1021.0 |
| 20260503042009 | 13 | 325 | 0.0 | 0.0 | 0.00 | 0.03 | 0.03 | 91 | 1021.0 |
| 20260503041514 | 13 | 325 | 0.0 | 0.0 | 0.00 | 0.03 | 0.03 | 91 | 1021.0 |
| 20260503041007 | 13 | 325 | 0.0 | 0.0 | 0.00 | 0.03 | 0.03 | 92 | 1021.1 |
| 20260503040509 | 13 | 324 | 0.0 | 0.0 | 0.00 | 0.03 | 0.03 | 91 | 1021.0 |
| 20260503040010 | 13 | 324 | 0.0 | 0.0 | 0.00 | 0.03 | 0.03 | 91 | 1021.1 |
| 20260503035508 | 13 | 324 | 0.0 | 0.0 | 0.00 | 0.03 | 0.03 | 90 | 1021.1 |
| 20260503035007 | 13 | 324 | 0.0 | 0.0 | 0.00 | 0.03 | 0.03 | 90 | 1021.1 |
| 20260503034528 | 13 | 324 | 0.0 | 0.0 | 0.00 | 0.03 | 0.03 | 90 | 1021.0 |
| 20260503034004 | 13 | 324 | 0.0 | 0.0 | 0.00 | 0.03 | 0.03 | 90 | 1020.8 |
| 20260503033508 | 14 | 325 | 0.0 | 0.0 | 0.00 | 0.03 | 0.03 | 89 | 1020.7 |
| 20260503033023 | 14 | 324 | 0.0 | 0.0 | 0.00 | 0.03 | 0.03 | 89 | 1020.7 |
| 20260503032509 | 14 | 324 | 0.0 | 0.0 | 0.00 | 0.03 | 0.03 | 89 | 1020.7 |
| 20260503032006 | 14 | 325 | 0.0 | 0.0 | 0.00 | 0.03 | 0.03 | 89 | 1020.6 |
| 20260503031523 | 14 | 324 | 0.0 | 0.0 | 0.00 | 0.03 | 0.03 | 89 | 1020.5 |
| 20260503031004 | 14 | 325 | 0.0 | 0.0 | 0.00 | 0.03 | 0.03 | 88 | 1020.5 |
| 20260503030511 | 14 | 325 | 0.0 | 0.0 | 0.00 | 0.03 | 0.03 | 88 | 1020.6 |
| 20260503030019 | 15 | 324 | 0.0 | 0.0 | 0.00 | 0.03 | 0.03 | 87 | 1020.5 |
| 20260503025506 | 15 | 324 | 0.0 | 0.0 | 0.00 | 0.03 | 0.03 | 87 | 1020.4 |
| 20260503025008 | 15 | 325 | 0.0 | 0.0 | 0.00 | 0.03 | 0.03 | 87 | 1020.4 |
| 20260503024520 | 15 | 324 | 0.0 | 0.0 | 0.00 | 0.03 | 0.03 | 86 | 1020.6 |
| 20260503024003 | 15 | 324 | 0.0 | 0.0 | 0.00 | 0.03 | 0.03 | 86 | 1020.6 |
| 20260503023510 | 15 | 324 | 0.0 | 0.0 | 0.00 | 0.03 | 0.03 | 85 | 1020.6 |
| 20260503023019 | 15 | 324 | 0.0 | 0.0 | 0.00 | 0.03 | 0.03 | 85 | 1020.4 |
| 20260503022507 | 15 | 324 | 0.0 | 0.0 | 0.00 | 0.03 | 0.03 | 85 | 1020.3 |
| 20260503022015 | 15 | 325 | 0.0 | 0.0 | 0.00 | 0.03 | 0.03 | 84 | 1020.3 |
| 20260503021514 | 15 | 324 | 0.0 | 0.0 | 0.00 | 0.03 | 0.03 | 84 | 1020.2 |
| 20260503021008 | 16 | 324 | 0.0 | 0.0 | 0.00 | 0.03 | 0.03 | 83 | 1020.3 |
| 20260503020509 | 16 | 324 | 0.0 | 0.0 | 0.00 | 0.03 | 0.03 | 83 | 1020.3 |
| 20260503020010 | 16 | 324 | 0.0 | 0.0 | 0.00 | 0.03 | 0.03 | 83 | 1020.1 |
| 20260503015509 | 16 | 324 | 0.0 | 0.0 | 0.00 | 0.03 | 0.03 | 82 | 1020.0 |
| 20260503015005 | 16 | 324 | 0.0 | 0.0 | 0.00 | 0.03 | 0.03 | 80 | 1020.0 |
| 20260503014527 | 16 | 325 | 0.0 | 0.0 | 0.00 | 0.03 | 0.03 | 79 | 1020.0 |
| 20260503014008 | 17 | 324 | 0.0 | 0.0 | 0.00 | 0.03 | 0.03 | 78 | 1019.9 |
| 20260503013505 | 17 | 324 | 0.0 | 0.0 | 0.00 | 0.03 | 0.03 | 75 | 1019.9 |
| 20260503013034 | 17 | 324 | 0.0 | 0.0 | 0.00 | 0.03 | 0.03 | 74 | 1019.8 |
| 20260503012507 | 17 | 324 | 0.0 | 0.0 | 0.00 | 0.03 | 0.03 | 73 | 1019.8 |
| 20260503012014 | 18 | 324 | 0.0 | 0.0 | 0.00 | 0.03 | 0.03 | 73 | 1019.7 |
| 20260503011529 | 18 | 324 | 0.0 | 0.0 | 0.00 | 0.05 | 0.03 | 72 | 1019.5 |
| 20260503011004 | 18 | 324 | 0.0 | 0.0 | 0.00 | 0.05 | 0.03 | 72 | 1019.6 |
| 20260503010507 | 19 | 324 | 0.0 | 0.0 | 0.00 | 0.05 | 0.03 | 69 | 1019.6 |
| 20260503010023 | 20 | 324 | 0.0 | 0.0 | 0.00 | 0.05 | 0.03 | 68 | 1019.5 |
| 20260503005503 | 20 | 324 | 0.0 | 0.0 | 0.00 | 0.05 | 0.03 | 67 | 1019.4 |
| 20260503005008 | 20 | 324 | 0.0 | 0.0 | 0.00 | 0.05 | 0.03 | 68 | 1019.3 |
| 20260503004517 | 21 | 324 | 0.0 | 0.0 | 0.00 | 0.05 | 0.03 | 65 | 1019.3 |
| 20260503004011 | 21 | 324 | 0.0 | 1.6 | 0.00 | 0.08 | 0.03 | 62 | 1019.2 |
| 20260503003508 | 21 | 324 | 0.0 | 1.6 | 0.00 | 0.10 | 0.03 | 62 | 1019.1 |
| 20260503003018 | 21 | 356 | 0.0 | 1.6 | 0.00 | 0.13 | 0.03 | 60 | 1019.1 |
| 20260503002515 | 21 | 356 | 0.0 | 6.4 | 0.00 | 0.15 | 0.03 | 59 | 1019.1 |
| 20260503002008 | 22 | 306 | 0.0 | 6.4 | 0.00 | 0.18 | 0.03 | 56 | 1019.1 |
| 20260503001516 | 22 | 338 | 0.0 | 4.8 | 0.00 | 0.18 | 0.03 | 55 | 1019.1 |
| 20260503001017 | 22 | 321 | 0.0 | 8.0 | 0.00 | 0.20 | 0.03 | 55 | 1019.0 |
| 20260503000506 | 22 | 39 | 0.0 | 8.0 | 0.00 | 0.23 | 0.03 | 54 | 1018.9 |
| 20260503000036 | 22 | 33 | 0.0 | 4.8 | 0.00 | 0.23 | 0.03 | 57 | 1018.9 |
| 20260502235507 | 22 | 354 | 0.0 | 1.6 | 0.00 | 0.30 | 0.03 | 57 | 1018.9 |
| 20260502235006 | 22 | 115 | 0.0 | 1.6 | 0.00 | 0.33 | 0.03 | 56 | 1018.8 |
| 20260502234528 | 22 | 117 | 0.0 | 4.8 | 0.00 | 0.36 | 0.03 | 54 | 1018.8 |
| 20260502234011 | 22 | 92 | 0.0 | 4.8 | 0.00 | 0.41 | 0.03 | 55 | 1018.7 |
| 20260502233512 | 23 | 113 | 0.0 | 6.4 | 0.00 | 0.43 | 0.03 | 53 | 1018.7 |
| 20260502233024 | 23 | 148 | 0.0 | 6.4 | 0.00 | 0.43 | 0.03 | 53 | 1018.8 |
| 20260502232513 | 23 | 50 | 0.0 | 3.2 | 0.00 | 0.46 | 0.03 | 51 | 1018.8 |
| 20260502232008 | 23 | 295 | 0.0 | 4.8 | 0.00 | 0.46 | 0.03 | 53 | 1018.8 |
| 20260502231523 | 23 | 328 | 0.0 | 4.8 | 0.00 | 0.48 | 0.03 | 53 | 1018.7 |
| 20260502231008 | 23 | 314 | 1.6 | 4.8 | 0.00 | 0.51 | 0.03 | 51 | 1018.7 |
| 20260502230511 | 23 | 96 | 0.0 | 3.2 | 0.00 | 0.51 | 0.03 | 50 | 1018.7 |
| 20260502230024 | 23 | 39 | 0.0 | 3.2 | 0.00 | 0.53 | 0.03 | 51 | 1018.8 |
| 20260502225507 | 23 | 323 | 0.0 | 3.2 | 0.00 | 0.58 | 0.03 | 52 | 1018.8 |
| 20260502225006 | 23 | 125 | 1.6 | 3.2 | 0.00 | 0.69 | 0.03 | 50 | 1018.8 |
| 20260502224523 | 24 | 72 | 0.0 | 3.2 | 0.00 | 0.74 | 0.03 | 49 | 1018.8 |
| 20260502224010 | 24 | 60 | 0.0 | 3.2 | 0.00 | 0.76 | 0.03 | 50 | 1018.8 |
| 20260502223511 | 24 | 78 | 1.6 | 3.2 | 0.00 | 0.79 | 0.03 | 49 | 1018.8 |
| 20260502223020 | 24 | 75 | 0.0 | 1.6 | 0.00 | 0.79 | 0.03 | 53 | 1018.8 |
| 20260502222507 | 24 | 88 | 0.0 | 1.6 | 0.00 | 0.79 | 0.03 | 51 | 1018.8 |
| 20260502222006 | 24 | 67 | 0.0 | 6.4 | 0.00 | 0.79 | 0.03 | 52 | 1019.0 |
| 20260502221533 | 24 | 343 | 1.6 | 6.4 | 0.00 | 0.79 | 0.03 | 49 | 1018.9 |
| 20260502221006 | 24 | 88 | 0.0 | 3.2 | 0.00 | 0.79 | 0.03 | 51 | 1019.0 |
| 20260502220507 | 24 | 93 | 0.0 | 4.8 | 0.00 | 0.79 | 0.03 | 50 | 1018.9 |
| 20260502220026 | 24 | 51 | 1.6 | 8.0 | 0.00 | 0.79 | 0.03 | 51 | 1019.1 |
| 20260502215508 | 24 | 98 | 1.6 | 12.9 | 0.00 | 0.79 | 0.03 | 49 | 1019.0 |
| 20260502215008 | 25 | 324 | 3.2 | 12.9 | 0.00 | 0.79 | 0.03 | 48 | 1018.9 |
| 20260502214527 | 24 | 229 | 0.0 | 4.8 | 0.00 | 0.79 | 0.03 | 49 | 1018.9 |